sat.trackr.live / text

‹ back to catalog

STARLINK-35751

NORAD 66208 · 2025-244C

PAYLOAD ACTIVE UNKNOWN

§ Identity

Operator
Country
US
Launch date
2025-10-28
Launch site
AFWTR
Launch vehicle
Mass (kg)
RCS (m²)

Purposes: comms

External: N2YO · Heavens-Above · Gunter

§ Orbital elements

Epoch: 2026-09-20T13:36:15.461568Z

Period
93.85 min
Inclination
53.1543°
Eccentricity
0.0002377
Mean motion
15.34409821 rev/d
Perigee alt
461.0 km
Apogee alt
464.3 km
Semi-major
6,840.8 km
B*
5.3812e-4
RAAN
41.3587°
Arg perigee
70.7003°
Mean anomaly
289.4257°
Rev number
5,154

§ Raw data

STARLINK-357511 66208U 25244C   26263.56684562  .00017854  00000+0  53812-3 0  99962 66208  53.1543  41.3587 0002377  70.7003 289.4257 15.34409821 51548

JSON: /api/v1/satellites/66208 · /tle

For live sub-satellite position, see the globe view (requires WebGL).

§ Visibility from observer

Set your observer location to see the next 7 days of passes ≥ 10°. The values pass through the URL so the page stays shareable.

No JS? Fill the form by hand. The geolocation button needs JavaScript.